Regional Weather Roundup
Issued by NWS Northern Indiana

Home | Current Version | Previous Version | Text Only | Print | Product List | Glossary On
Versions: 1 2 3 4 5 6 7 8 9 10 11 12 13 14 15 16 17 18 19 20 21 22 23 24 25 26 27 28 29 30 31 32 33 34 35 36 37 38 39 40 41 42 43 44 45 46 47 48 49 50
000
ASUS43 KIWX 280600
RWRIWX

KIWX WEATHER ROUNDUP
NATIONAL WEATHER SERVICE NORTHERN INDIANA
200 AM EDT SUN MAY 28 2017

NOTE: "FAIR" INDICATES FEW OR NO CLOUDS BELOW 12,000 FEET WITH NO
SIGNIFICANT WEATHER AND/OR OBSTRUCTIONS TO VISIBILITY.

* THESE STATIONS ARE NOT UNDER NWS QUALITY CONTROL. THEY ALSO MAY NOT
  REPORT WEATHER SUCH AS PRECIPITATION OR FOG.

INZ001>027-280700-
NORTHERN INDIANA

CITY           SKY/WX    TMP DP  RH WIND       PRES   REMARKS
MICHIGAN CITY* CLOUDY    55  55 100 CALM      29.83S
SOUTH BEND     CLOUDY    60  58  92 N5        29.83F
6HR MIN TEMP:  58; 6HR MAX TEMP:  71;

GOSHEN         CLOUDY    63  56  78 SE7       29.81F
6HR MIN TEMP:  63; 6HR MAX TEMP:  73;

MONTICELLO*    CLOUDY    60  58  95 CALM      29.80S FOG
6HR MIN TEMP:  59; 6HR MAX TEMP:  70;

ANGOLA*        CLEAR     61  50  67 E3        29.83S
FORT WAYNE     MOCLDY    62  57  83 N3        29.83F
6HR MIN TEMP:  60; 6HR MAX TEMP:  73;

PERU/GRISSOM   CLOUDY    62  62 100 E6        29.80R
6HR MIN TEMP:  60; 6HR MAX TEMP:  73; 6HR PCP: TRACE;


$$
INZ028>050-280700-
CENTRAL INDIANA

CITY           SKY/WX    TMP DP  RH WIND       PRES   REMARKS
LAFAYETTE      CLOUDY    60  60 100 CALM      29.79F
6HR MIN TEMP:  59; 6HR MAX TEMP:  70;

KOKOMO*        PTCLDY    63  61  93 N3        29.82R
6HR MIN TEMP:  61; 6HR MAX TEMP:  73;

MUNCIE*        CLEAR     66  63  90 CALM      29.80F
6HR MIN TEMP:  65; 6HR MAX TEMP:  74;

INDIANAPOLIS   PTCLDY    67  61  81 E3        29.78F
6HR MIN TEMP:  65; 6HR MAX TEMP:  75;


$$
MIZ043>046-050>051-056>058-064>065-071>073-077>080-280700-
SOUTHWEST LOWER MICHIGAN

CITY           SKY/WX    TMP DP  RH WIND       PRES   REMARKS
BATTLE CREEK   CLOUDY    58  56  93 S3        29.84F
6HR MIN TEMP:  58; 6HR MAX TEMP:  71;

BENTON HARBOR  CLOUDY    58  54  86 CALM      29.82F
6HR MIN TEMP:  55; 6HR MAX TEMP:  66;

COLDWATER*     CLOUDY    57  56  97 CALM      29.84S
6HR MIN TEMP:  57; 6HR MAX TEMP:  70;

HILLSDALE*     CLOUDY    55  52  88 E3        29.83F
HOLLAND        MOCLDY    60  53  77 CALM      29.84F
6HR MIN TEMP:  57; 6HR MAX TEMP:  69;

GRAND RAPIDS   PTCLDY    59  57  93 CALM      29.84F
6HR MIN TEMP:  59; 6HR MAX TEMP:  73;

KALAMAZOO      CLOUDY    62  56  80 CALM      29.83F
6HR MIN TEMP:  60; 6HR MAX TEMP:  72;

STURGIS*       CLOUDY    59  56  92 E6        29.83S
6HR MIN TEMP:  59; 6HR MAX TEMP:  71;

THREE RIVERS*  FAIR      59  58  95 CALM      29.83F
6HR MIN TEMP:  58; 6HR MAX TEMP:  71;


$$
OHZ001>008-015>018-024>025-280700-
NORTHWEST OHIO

CITY           SKY/WX    TMP DP  RH WIND       PRES   REMARKS
DEFIANCE       CLEAR     57  53  86 NE3       29.81F
6HR MIN TEMP:  56; 6HR MAX TEMP:  70;

FINDLAY        CLOUDY    63  53  70 E9        29.80F
6HR MIN TEMP:  63; 6HR MAX TEMP:  71;

TOLEDO EXPRESS CLOUDY    57  54  89 E3        29.82F
6HR MIN TEMP:  57; 6HR MAX TEMP:  69;

TOLEDO METCALF CLOUDY    62  54  74 E5        29.84F
6HR MIN TEMP:  62; 6HR MAX TEMP:  69;

LIMA           CLOUDY    61  58  90 E5        29.81F
6HR MIN TEMP:  60; 6HR MAX TEMP:  70;


$$
AND FOR LAKE MICHIGAN COASTAL AND OPEN LAKE BUOY OBSERVATIONS

STATION/POSITION TEMP    WIND        PRES    VSBY  WAVE
                 AIR SEA DIR/SP/G                  HT/PER
                 (F)     (DEG/KT/KT) (MB)    (MI)  (FT/S)
CALUMET HARBOR    57     360/  2/  3 1009.3F
MICHIGAN CITY     59      60/  3/  3   N/A
BURNS HARBOR      60        CALM     1010.5S
SOUTH LAKE BUOY   53 49   90/  4/  4 1010.4          0
4 MI NW BRIDGMAN  60 59  100/  4/  4 1009.8F         0
MICHIGAN CITY     57 56   60/  2/  4   N/A           0

$$
&&



USA.gov is the U.S. government's official web portal to all federal, state and local government web resources and services.